Oscoda, MI

1:59 PM EDT on May 22, 2017 (GMT -0400)
Oscoda-Wurtsmith

Weather History for KOSC - November, 2013

Change the Weather History Date:

Monday, November 18, 2013

  Actual Average Record
Temperature  
Mean Temperature 40 °F -  
Max Temperature 48 °F 43 °F 66 °F (2016)
Min Temperature 32 °F 29 °F 14 °F (2014)
Degree Days  
Heating Degree Days 25    
Moisture  
Dew Point 30 °F    
Average Humidity 72    
Maximum Humidity 92    
Minimum Humidity 56    
Precipitation  
Precipitation 0.02 in - - ()
Sea Level Pressure  
Sea Level Pressure 29.64 in    
Wind  
Wind Speed 21 mph (West)    
Max Wind Speed 30 mph    
Max Gust Speed 44 mph    
Visibility 9 miles    
Events Rain , Snow    
Averages and records for this station are not official NWS values.
T = Trace of Precipitation, MM = Missing Value Source: NWS Daily Summary

Daily Weather History Graph

Daily Weather History Graph

Search for Another Location

Airport or City:

Trip Planner

Search our weather history database for the weather conditions in past years. The results will help you decide how hot, cold, wet, or windy it might be!

Date:

Astronomy

Nov. 18, 2013 Rise Set
Actual Time 7:33 AM EST 5:03 PM EST
Civil Twilight 7:02 AM EST 5:34 PM EST
Nautical Twilight 6:26 AM EST 6:10 PM EST
Astronomical Twilight 5:52 AM EST 6:44 PM EST
Moon 6:04 PM EST (11/18) 8:22 AM EST (11/18)
Length of Visible Light 10h 32m
Length of Day
9h 29m
Full, 99% of the Moon is Illuminated
Nov 18
Full
Nov 25
Last Quarter
Dec 2
New
Dec 9
First Quarter
Dec 17
Full

Hourly Weather History & Observations

Time (EST) Temp. Windchill Dew Point Humidity Pressure Visibility Wind Dir Wind Speed Gust Speed Precip Events Conditions
12:14 AM 48.0 °F - 44.1 °F 86% 29.17 in 10.0 mi West 24.2 mph 34.5 mph N/A Rain Light Rain
12:34 AM 47.7 °F - 43.9 °F 87% 29.19 in 10.0 mi West 27.6 mph 35.7 mph N/A   Overcast
12:54 AM 46.9 °F - 42.3 °F 84% 29.22 in 10.0 mi West 20.7 mph 34.5 mph N/A   Overcast
1:14 AM 46.4 °F 38.3 °F 41.0 °F 81% 29.24 in 10.0 mi West 23.0 mph 31.1 mph N/A   Overcast
1:34 AM 46.4 °F 38.7 °F 41.0 °F 81% 29.27 in 10.0 mi West 20.7 mph 34.5 mph N/A   Overcast
1:54 AM 45.5 °F 36.7 °F 41.0 °F 84% 29.28 in 10.0 mi West 25.3 mph 32.2 mph N/A   Overcast
2:13 AM 44.6 °F 34.7 °F 39.7 °F 83% 29.31 in 10.0 mi West 29.9 mph 43.7 mph N/A   Overcast
2:34 AM 44.4 °F 35.5 °F 38.3 °F 79% 29.33 in 10.0 mi West 24.2 mph 32.2 mph N/A   Overcast
2:54 AM 42.8 °F 32.5 °F 37.4 °F 81% 29.35 in 10.0 mi West 28.8 mph 36.8 mph N/A Rain Light Rain
3:13 AM 42.8 °F 34.0 °F 36.3 °F 78% 29.37 in 10.0 mi West 20.7 mph 34.5 mph N/A   Overcast
3:34 AM 42.8 °F 33.3 °F 36.1 °F 77% 29.37 in 10.0 mi West 24.2 mph 33.4 mph N/A   Overcast
3:54 AM 42.6 °F 32.8 °F 35.2 °F 75% 29.38 in 10.0 mi West 25.3 mph 34.5 mph N/A   Overcast
4:13 AM 43.0 °F 33.3 °F 33.6 °F 70% 29.40 in 10.0 mi West 25.3 mph 36.8 mph N/A   Overcast
4:34 AM 43.3 °F 34.7 °F 33.3 °F 68% 29.41 in 10.0 mi West 20.7 mph 36.8 mph N/A   Overcast
4:54 AM 42.4 °F 35.0 °F 34.7 °F 74% 29.43 in 10.0 mi WSW 15.0 mph 33.4 mph N/A   Overcast
5:13 AM 42.3 °F 34.1 °F 34.7 °F 75% 29.44 in 10.0 mi West 17.3 mph 26.5 mph N/A Rain Light Rain
5:34 AM 42.3 °F 32.4 °F 33.3 °F 70% 29.44 in 10.0 mi West 25.3 mph 34.5 mph N/A Rain Light Rain
5:54 AM 43.0 °F 32.9 °F 31.6 °F 64% 29.45 in 10.0 mi West 27.6 mph 42.6 mph N/A   Overcast
6:14 AM 42.4 °F 33.3 °F 32.4 °F 68% 29.45 in 10.0 mi West 21.9 mph 28.8 mph N/A   Drizzle
6:34 AM 40.3 °F 32.6 °F 34.7 °F 80% 29.46 in 10.0 mi West 13.8 mph - N/A Rain Light Rain
6:54 AM 39.2 °F 30.5 °F 35.2 °F 86% 29.47 in 10.0 mi West 16.1 mph 21.9 mph N/A Rain Light Rain
7:13 AM 40.1 °F 30.7 °F 35.2 °F 83% 29.46 in 10.0 mi WSW 19.6 mph 28.8 mph N/A   Overcast
7:34 AM 40.6 °F 30.7 °F 33.6 °F 76% 29.47 in 10.0 mi West 23.0 mph 32.2 mph N/A   Overcast
7:54 AM 41.0 °F 29.8 °F 32.5 °F 72% 29.48 in 10.0 mi West 29.9 mph 40.3 mph N/A   Overcast
8:13 AM 40.8 °F 30.4 °F 32.2 °F 71% 29.49 in 10.0 mi West 25.3 mph 36.8 mph N/A   Overcast
8:34 AM 40.6 °F 30.9 °F 32.0 °F 71% 29.50 in 10.0 mi WSW 21.9 mph 32.2 mph N/A   Overcast
8:54 AM 40.3 °F 31.0 °F 32.0 °F 72% 29.51 in 10.0 mi West 19.6 mph 28.8 mph N/A   Overcast
9:13 AM 39.0 °F 28.5 °F 33.1 °F 79% 29.52 in 7.0 mi West 23.0 mph 29.9 mph N/A Rain Rain
9:34 AM 37.0 °F 28.5 °F 34.9 °F 92% 29.54 in 3.0 mi West 13.8 mph 23.0 mph N/A Rain Rain
9:54 AM 35.6 °F 24.8 °F 33.4 °F 92% 29.55 in 1.5 mi West 19.6 mph 31.1 mph 0.01 in Rain Light Rain
10:14 AM 36.1 °F 25.0 °F 33.6 °F 91% 29.56 in 2.5 mi West 21.9 mph 31.1 mph 0.01 in Rain Light Rain
10:34 AM 37.0 °F 29.3 °F 34.7 °F 91% 29.58 in 7.0 mi WNW 11.5 mph 28.8 mph 0.01 in Rain Light Rain
10:54 AM 37.8 °F 27.4 °F 33.3 °F 84% 29.59 in 10.0 mi West 20.7 mph 34.5 mph 0.01 in   Overcast
11:14 AM 37.6 °F 28.8 °F 32.2 °F 81% 29.60 in 10.0 mi West 15.0 mph 28.8 mph N/A   Overcast
11:34 AM 38.3 °F 29.3 °F 32.0 °F 78% 29.61 in 10.0 mi West 16.1 mph 32.2 mph N/A   Overcast
11:54 AM 39.7 °F 28.8 °F 29.7 °F 67% 29.61 in 10.0 mi West 26.5 mph 36.8 mph N/A   Overcast
12:14 PM 38.5 °F 27.1 °F 26.1 °F 61% 29.62 in 10.0 mi WNW 26.5 mph 38.0 mph N/A   Mostly Cloudy
12:34 PM 39.0 °F 28.5 °F 27.3 °F 63% 29.63 in 10.0 mi West 23.0 mph 40.3 mph N/A   Mostly Cloudy
12:54 PM 39.9 °F 30.0 °F 27.3 °F 61% 29.64 in 10.0 mi West 21.9 mph 31.1 mph N/A   Overcast
1:14 PM 37.2 °F 26.4 °F 30.0 °F 75% 29.66 in 3.0 mi West 21.9 mph 29.9 mph N/A Snow Light Snow
1:33 PM 34.7 °F 23.7 °F 30.7 °F 85% 29.67 in 1.2 mi West 19.6 mph 31.1 mph N/A Snow Light Snow
1:54 PM 38.3 °F 28.4 °F 28.2 °F 67% 29.68 in 10.0 mi West 19.6 mph 29.9 mph N/A   Scattered Clouds
2:14 PM 38.8 °F 28.0 °F 27.9 °F 65% 29.69 in 10.0 mi West 24.2 mph 34.5 mph N/A   Scattered Clouds
2:33 PM 39.2 °F 29.6 °F 26.8 °F 61% 29.69 in 10.0 mi West 19.6 mph 33.4 mph N/A   Scattered Clouds
2:54 PM 37.6 °F 26.3 °F 23.2 °F 56% 29.70 in 10.0 mi WNW 24.2 mph 38.0 mph N/A   Mostly Cloudy
3:14 PM 36.9 °F 25.4 °F 24.8 °F 62% 29.73 in 10.0 mi WNW 24.2 mph 36.8 mph N/A   Mostly Cloudy
3:33 PM 37.4 °F 25.9 °F 23.0 °F 56% 29.75 in 10.0 mi West 25.3 mph 33.4 mph N/A   Scattered Clouds
3:54 PM 37.0 °F 26.2 °F 22.8 °F 56% 29.76 in 10.0 mi WNW 21.9 mph 33.4 mph N/A   Scattered Clouds
4:14 PM 35.8 °F 23.4 °F 22.5 °F 58% 29.78 in 10.0 mi West 26.5 mph 33.4 mph N/A   Mostly Cloudy
4:33 PM 35.4 °F 23.7 °F 22.1 °F 58% 29.79 in 10.0 mi WNW 23.0 mph 36.8 mph N/A   Scattered Clouds
4:54 PM 35.1 °F 23.3 °F 21.7 °F 58% 29.82 in 10.0 mi WNW 23.0 mph 33.4 mph N/A   Mostly Cloudy
5:14 PM 35.1 °F 23.0 °F 21.7 °F 58% 29.83 in 10.0 mi WNW 24.2 mph 38.0 mph N/A   Overcast
5:33 PM 34.7 °F 24.0 °F 22.1 °F 60% 29.85 in 10.0 mi WNW 18.4 mph 35.7 mph N/A   Overcast
5:54 PM 34.2 °F 23.3 °F 22.3 °F 62% 29.86 in 10.0 mi West 18.4 mph 32.2 mph N/A   Mostly Cloudy
6:14 PM 34.0 °F 22.4 °F 23.0 °F 64% 29.87 in 10.0 mi WNW 20.7 mph 26.5 mph N/A   Overcast
6:34 PM 34.2 °F 24.0 °F 23.4 °F 65% 29.89 in 10.0 mi WNW 16.1 mph 25.3 mph N/A   Overcast
6:54 PM 34.0 °F 23.4 °F 23.2 °F 65% 29.90 in 10.0 mi WNW 17.3 mph 24.2 mph N/A   Overcast
7:14 PM 34.0 °F 24.2 °F 23.0 °F 64% 29.91 in 10.0 mi WNW 15.0 mph 26.5 mph N/A   Overcast
7:34 PM 33.8 °F 23.2 °F 23.5 °F 66% 29.92 in 10.0 mi WNW 17.3 mph 24.2 mph N/A   Overcast
7:54 PM 34.0 °F 25.0 °F 23.7 °F 66% 29.93 in 10.0 mi WNW 12.7 mph 20.7 mph N/A   Overcast
8:14 PM 33.8 °F 25.3 °F 24.3 °F 68% 29.95 in 10.0 mi NW 11.5 mph 20.7 mph N/A   Overcast
8:34 PM 33.3 °F 22.5 °F 25.7 °F 74% 29.96 in 10.0 mi NW 17.3 mph 27.6 mph N/A   Overcast
8:54 PM 33.1 °F 24.4 °F 25.7 °F 74% 29.97 in 10.0 mi NW 11.5 mph 23.0 mph N/A   Overcast
9:14 PM 33.1 °F 24.9 °F 26.1 °F 75% 29.98 in 10.0 mi WNW 10.4 mph - N/A   Overcast
9:34 PM 32.9 °F 26.7 °F 26.8 °F 78% 29.99 in 10.0 mi WNW 6.9 mph - N/A   Overcast
9:54 PM 33.3 °F 23.7 °F 26.1 °F 75% 29.99 in 10.0 mi WNW 13.8 mph 18.4 mph N/A   Overcast
10:14 PM 33.8 °F 24.8 °F 25.3 °F 71% 30.00 in 10.0 mi WNW 12.7 mph 19.6 mph N/A   Overcast
10:34 PM 33.8 °F 24.3 °F 25.5 °F 72% 30.01 in 10.0 mi WNW 13.8 mph 19.6 mph N/A   Overcast
10:54 PM 33.8 °F 24.8 °F 25.5 °F 72% 30.01 in 10.0 mi WNW 12.7 mph 18.4 mph N/A   Overcast
11:13 PM 33.8 °F 27.0 °F 25.7 °F 72% 30.02 in 10.0 mi NW 8.1 mph - N/A   Overcast
11:34 PM 33.4 °F 25.9 °F 25.2 °F 72% 30.03 in 10.0 mi NW 9.2 mph - N/A   Overcast
11:54 PM 33.4 °F 24.3 °F 24.3 °F 69% 30.05 in 10.0 mi WNW 12.7 mph 19.6 mph N/A   Overcast